Temperature
11 11 11 11 11 11 11 10 10 10 10 10 10 11 11 11 11 11 11 11 11 11 11 11 11 11 11 12 12 12 11 11 11 11 11 11 11 11
11 11 10 11 10 10 10 10 10 10 10 10 10 10 10 10 11 11 11 11 11 11 11 11 11 11 11 11 11 11 11 11 11 11 11 11 11 11
10 10 10 10 10 10 10 10 10 10 10 10 10 10 10 10 10 10 10 11 11 11 11 11 11 11 10 10 11 11 11 11 11 11 11 10 10 10
10 10 10 10 10 10 10 10 10 10 10 10 10 10 10 10 10 10 10 10 10 10 10 10 10 10 10 10 10 10 10 10 10 10 10 10 10 10
10 10 10 10 10 10 9 9 9 9 9 9 9 9 9 9 9 9 9 9 10 10 10 10 10 10 10 10 10 10 10 10 10 10 10 10 10 10
9 9 9 9 9 9 9 9 9 9 9 9 9 9 9 9 9 9 9 9 9 9 9 9 9 9 9 9 9 9 9 9 9 9 9 9 9 9
9 9 9 9 9 9 9 9 9 9 9 8 8 8 8 8 8 8 8 8 8 8 9 9 9 9 9 9 9 9 9 9 9 9 9 9 9 9
9 9 9 8 8 8 8 8 8 8 8 8 8 8 8 8 8 8 7 8 7 8 8 8 8 8 8 9 9 9 9 9 9 9 9 9 9 9
8 8 8 8 8 8 8 8 8 8 8 8 8 8 7 7 7 7 7 7 7 7 7 8 8 8 8 8 8 8 8 8 8 9 8 9 9 9
8 7 7 7 7 7 7 7 8 7 7 7 7 7 7 7 7 7 7 7 7 7 7 7 7 7 8 8 8 8 8 8 8 8 8 8 8 8
7 7 7 7 7 7 7 7 7 7 7 7 7 7 7 7 7 7 6 6 6 6 6 6 7 7 7 7 7 7 7 7 8 8 8 8 8 8
7 7 7 6 6 6 6 6 6 7 6 6 6 6 6 6 6 6 6 6 6 6 6 6 6 6 6 6 6 7 7 7 7 7 7 7 7 7
6 6 6 6 6 6 6 6 6 6 6 6 6 6 6 6 6 6 6 5 5 5 5 5 5 5 5 5 6 6 6 6 6 7 7 7 7 7
6 6 6 6 5 5 5 5 5 5 5 5 5 5 5 5 5 5 5 5 5 5 5 5 5 5 5 5 5 5 6 6 6 6 6 6 6 6
5 5 5 5 5 5 5 5 5 5 5 5 5 5 5 5 4 4 4 4 5 4 4 5 5 5 5 5 5 5 5 5 5 5 6 6 6 6
5 5 5 5 5 5 5 5 5 5 4 4 4 4 4 4 4 4 4 4 4 4 4 4 4 4 4 4 4 4 5 5 5 5 5 5 5 5
4 4 4 4 4 4 4 4 4 4 4 4 4 4 4 4 3 3 3 3 3 4 4 4 4 4 4 4 4 4 4 4 4 4 4 5 5 5
4 4 4 3 3 3 3 3 3 3 3 3 3 3 3 3 3 3 3 3 3 3 3 3 3 3 3 3 4 4 4 4 4 4 4 4 5 5
3 3 3 3 3 3 3 3 3 3 3 3 3 3 3 2 2 2 2 2 2 2 2 2 2 2 2 3 3 3 3 3 3 3 4 4 4 4
3 2 2 2 2 2 2 2 2 2 2 2 2 2 2 2 2 2 2 2 2 2 2 2 2 2 2 2 2 2 3 3 3 3 3 3 3 4
2 2 2 2 2 2 2 2 2 2 2 2 2 2 2 2 2 2 2 2 2 2 1 2 2 2 2 2 2 2 2 2 2 2 3 3 3 3
1 1 1 1 1 1 1 1 1 1 1 1 2 2 2 2 2 1 1 1 1 1 1 1 1 1 1 1 1 1 2 2 2 2 2 3 3 3
1 1 1 1 1 1 1 1 1 1 1 1 1 1 1 1 1 1 1 1 1 1 1 1 1 1 1 1 1 1 1 1 2 2 2 3 3 3
Wind_Speed
1 1 1 2 1 1 1 2 3 2 3 3 2 2 3 3 4 2 3 4 4 4 5 4 3 3 3 2 2 2 1 1 1 1 1 1 1 1
1 1 2 2 1 1 1 1 2 3 3 3 3 3 2 3 4 3 4 5 4 4 4 4 2 1 1 1 1 1 1 2 1 1 1 1 1 1
2 1 2 2 1 1 0 1 1 2 3 3 2 2 1 2 3 3 3 3 3 4 4 3 2 2 2 2 2 1 1 1 1 2 2 1 1 1
2 1 2 2 1 1 1 1 2 2 3 3 2 1 1 1 1 2 3 4 3 4 4 3 3 3 2 2 2 2 2 2 2 2 3 3 3 3
2 2 2 1 2 2 2 2 2 1 2 2 2 1 1 1 1 2 3 3 4 4 5 4 4 4 3 3 3 4 4 4 4 4 4 4 4 4
2 2 2 2 3 3 2 2 2 1 1 1 1 1 1 1 1 1 2 2 3 4 5 5 4 5 5 5 5 4 4 4 4 4 4 4 5 5
3 3 3 2 3 2 2 2 2 2 1 1 2 1 1 0 1 1 1 1 2 2 2 3 3 3 4 5 5 5 5 5 4 4 4 4 5 5
2 3 3 2 3 3 3 2 2 3 3 2 2 2 3 2 1 1 1 1 2 2 1 2 1 2 2 3 5 5 5 4 4 4 4 4 4 4
2 2 2 2 3 2 3 3 2 2 2 3 3 4 4 3 3 2 2 2 3 3 1 2 2 2 3 4 6 6 5 5 4 4 4 4 4 4
2 2 1 2 2 1 1 2 2 2 2 2 4 4 4 4 4 4 3 1 2 2 1 2 2 3 4 4 6 5 5 5 4 4 4 3 3 3
3 2 2 2 3 4 1 1 2 2 3 2 3 3 3 3 2 1 1 1 2 3 1 1 2 2 3 3 5 5 4 4 4 4 4 3 3 3
2 3 3 3 4 4 1 1 2 3 2 3 3 3 2 2 2 2 3 2 2 2 2 1 2 1 2 2 2 4 4 4 4 4 5 4 4 2
2 2 3 4 5 4 3 2 4 3 1 2 2 1 1 1 2 2 2 3 3 3 3 2 2 2 2 2 3 2 2 2 2 3 4 5 4 3
2 2 3 5 5 4 3 3 3 3 0 0 1 2 2 2 2 2 2 2 3 4 4 3 2 2 2 3 3 2 2 2 1 1 2 3 3 4
2 4 5 5 5 3 3 3 2 1 1 1 2 3 3 2 1 1 1 1 2 2 3 2 2 2 2 3 3 3 2 2 1 1 1 1 1 1
2 2 4 5 3 3 3 2 2 1 1 2 3 3 2 1 2 1 1 1 1 3 3 2 1 2 2 3 3 3 3 2 2 2 2 2 1 2
1 1 2 2 3 3 3 2 2 2 2 2 2 2 2 2 2 1 1 1 1 2 2 2 2 1 1 2 2 3 3 3 3 3 2 3 3 2
1 1 1 2 2 2 3 3 3 3 2 2 2 2 2 2 2 2 1 2 2 2 2 1 2 2 2 2 3 3 3 3 3 3 2 3 4 4
1 0 1 2 2 2 2 2 3 3 3 2 2 2 2 2 2 2 2 2 2 2 2 2 1 1 2 4 4 3 3 3 3 3 3 3 4 4
0 1 1 2 2 3 3 3 3 3 3 3 2 2 2 2 2 2 2 2 2 2 2 2 2 2 3 4 4 4 5 4 3 4 3 3 4 5
1 2 2 2 2 3 3 3 3 3 3 3 3 3 2 2 2 2 2 2 2 2 3 3 4 4 2 1 2 3 3 4 5 4 3 2 3 2
2 2 2 2 3 3 3 3 3 3 4 3 3 3 2 2 2 3 2 2 2 2 3 3 2 2 1 2 3 4 4 4 4 6 6 6 3 3
2 2 2 2 2 2 3 3 3 3 3 4 3 3 3 2 2 2 2 2 2 2 2 3 2 2 2 3 3 3 4 4 3 2 2 3 5 6
Wind_Direction
260 266 268 263 239 221 186 175 177 240 273 285 298 308 317 307 307 311 300 302 297 287 283 279 273 236 214 217 232 218 218 228 262 250 219 220 155 140
273 293 299 286 274 229 200 203 185 187 241 261 258 279 308 327 313 311 305 314 305 304 300 286 274 274 245 246 243 213 241 226 220 227 199 224 237 210
319 311 300 291 263 259 215 198 208 175 225 273 270 275 294 330 338 328 328 333 326 324 321 314 298 281 260 278 272 242 247 254 237 219 212 216 232 230
292 297 295 303 295 258 226 230 227 203 197 248 283 285 271 289 349 357 355 354 346 335 332 332 331 312 293 289 288 288 278 261 248 233 229 234 236 233
273 270 282 281 272 273 244 243 241 232 204 206 258 266 268 355 30 6 6 358 352 351 354 353 353 351 333 313 295 289 278 261 246 235 235 237 240 239
289 276 276 250 241 246 245 233 215 207 205 198 240 263 268 319 64 360 348 351 341 349 358 359 -0 351 339 325 307 290 279 268 257 245 237 237 237 235
326 308 287 285 288 256 260 221 196 196 196 206 228 252 268 279 253 246 280 331 332 333 1 353 357 351 332 321 310 293 280 273 258 253 250 242 237 234
328 326 320 335 339 337 330 293 207 197 205 209 219 224 245 239 232 230 246 322 310 306 351 315 345 315 315 307 298 292 284 277 258 250 250 247 244 235
313 318 331 350 348 325 343 353 340 300 223 200 210 228 233 226 213 227 235 234 258 259 308 296 304 293 304 300 297 292 283 274 266 253 245 240 242 239
320 306 306 313 320 337 16 5 325 307 274 243 222 227 229 217 208 219 215 238 280 283 241 265 287 288 306 307 299 297 287 281 272 256 240 239 238 235
330 329 308 295 322 338 359 332 311 305 324 311 288 274 267 255 226 177 188 190 289 290 263 227 268 296 303 301 310 313 309 290 272 256 246 239 229 232
328 322 317 312 316 332 319 281 296 287 302 316 320 318 316 291 270 216 206 214 258 274 257 227 257 304 311 306 326 343 342 317 287 264 255 240 231 212
302 303 302 321 313 311 309 257 269 286 270 272 287 298 298 281 282 276 231 217 232 254 236 205 239 256 246 282 305 317 326 323 316 296 267 256 246 218
265 278 288 309 313 308 306 290 302 326 317 257 276 281 275 270 267 283 283 270 242 239 232 206 227 237 249 272 278 302 314 320 318 304 308 281 259 244
276 289 303 315 320 317 302 304 315 311 248 242 257 260 258 261 273 296 304 331 335 301 266 238 208 232 237 247 259 267 281 291 297 286 294 283 276 247
301 313 335 342 337 337 348 345 330 281 246 236 250 260 264 267 269 272 277 271 313 316 334 312 227 200 248 253 243 259 258 257 280 275 273 277 281 252
316 0 4 353 353 353 350 342 341 339 313 271 255 268 272 266 274 284 278 269 257 276 304 331 359 343 211 222 244 251 252 260 254 260 260 275 276 268
41 27 339 331 326 327 331 329 328 322 306 298 280 270 272 266 268 277 269 240 243 259 267 282 318 342 343 321 234 235 251 256 258 249 237 252 273 273
74 309 301 306 311 311 308 307 306 305 305 293 283 279 276 276 271 270 266 259 256 262 270 268 267 262 287 293 289 238 232 256 261 258 242 234 254 262
16 291 293 296 301 303 301 303 307 311 312 304 286 279 277 275 274 267 260 261 267 280 289 284 256 246 247 260 277 285 258 242 253 259 260 256 265 269
298 299 295 297 302 301 303 306 307 307 305 301 289 278 274 273 272 267 267 277 291 286 275 273 272 277 281 298 292 294 291 267 252 249 246 252 264 271
283 292 298 298 297 298 301 309 310 312 311 304 296 284 272 262 259 260 258 262 269 271 279 293 303 296 280 258 268 281 293 301 297 276 248 229 215 222
276 284 295 301 304 311 310 304 302 305 307 307 304 298 280 270 263 256 257 258 262 278 291 300 309 301 279 261 266 276 285 294 304 305 295 270 244 244
Height
1521 1520 1519 1519 1518 1518 1517 1516 1516 1514 1513 1512 1512 1512 1511 1511 1510 1509 1508 1508 1508 1507 1506 1505 1503 1502 1503 1504 1505 1506 1507 1507 1508 1508 1509 1509 1510 1510
1518 1518 1517 1516 1516 1515 1514 1514 1514 1513 1511 1510 1509 1509 1509 1509 1508 1507 1507 1506 1506 1506 1505 1504 1503 1502 1502 1503 1503 1504 1504 1505 1506 1507 1507 1508 1508 1508
1516 1515 1514 1513 1513 1512 1512 1511 1511 1510 1509 1508 1508 1507 1507 1506 1506 1505 1504 1504 1504 1504 1503 1503 1502 1501 1501 1501 1501 1502 1502 1503 1504 1505 1505 1506 1506 1506
1513 1512 1511 1510 1510 1509 1508 1508 1507 1507 1507 1505 1505 1504 1504 1504 1503 1503 1502 1502 1501 1501 1501 1501 1500 1500 1500 1500 1500 1500 1500 1501 1502 1502 1503 1503 1504 1504
1511 1510 1508 1508 1507 1506 1505 1505 1504 1504 1503 1503 1502 1502 1502 1501 1501 1501 1500 1499 1499 1498 1499 1498 1498 1498 1498 1497 1497 1498 1498 1499 1499 1499 1500 1501 1501 1501
1508 1507 1506 1505 1504 1503 1502 1502 1501 1501 1500 1500 1499 1499 1499 1498 1498 1498 1497 1497 1496 1496 1496 1496 1495 1495 1495 1495 1495 1495 1496 1496 1496 1496 1497 1497 1498 1498
1505 1504 1503 1502 1501 1501 1500 1499 1498 1498 1497 1497 1497 1496 1496 1496 1496 1496 1495 1494 1494 1494 1493 1493 1493 1493 1493 1493 1492 1493 1493 1493 1493 1493 1494 1494 1494 1495
1502 1501 1500 1499 1498 1498 1497 1496 1496 1495 1494 1494 1494 1493 1493 1493 1493 1493 1492 1492 1491 1492 1491 1490 1491 1490 1490 1490 1490 1490 1490 1490 1490 1490 1490 1491 1491 1491
1499 1498 1496 1495 1494 1494 1494 1493 1492 1492 1492 1492 1491 1491 1491 1491 1491 1491 1490 1489 1489 1489 1488 1487 1487 1487 1487 1487 1487 1487 1487 1487 1487 1487 1487 1488 1488 1489
1496 1495 1493 1492 1492 1491 1490 1489 1489 1489 1489 1489 1488 1488 1488 1489 1489 1488 1487 1487 1486 1486 1486 1484 1483 1483 1484 1484 1484 1484 1484 1484 1484 1484 1484 1485 1485 1486
1493 1491 1491 1489 1488 1488 1487 1486 1485 1485 1486 1486 1485 1485 1485 1486 1486 1485 1484 1484 1482 1483 1483 1482 1480 1480 1480 1480 1481 1481 1481 1481 1481 1481 1481 1481 1482 1482
1489 1489 1488 1486 1485 1485 1484 1483 1482 1481 1482 1481 1482 1481 1481 1482 1482 1482 1481 1480 1479 1479 1479 1479 1478 1478 1476 1476 1477 1477 1477 1477 1477 1477 1477 1478 1478 1478
1486 1485 1484 1483 1482 1481 1481 1480 1479 1478 1478 1478 1477 1477 1477 1477 1478 1478 1478 1477 1476 1475 1476 1476 1475 1475 1474 1473 1473 1473 1473 1473 1473 1473 1474 1474 1475 1475
1482 1482 1481 1480 1479 1478 1477 1476 1476 1475 1475 1474 1473 1473 1473 1473 1473 1473 1474 1473 1473 1473 1473 1473 1472 1472 1471 1469 1469 1469 1470 1470 1470 1470 1470 1470 1470 1470
1479 1479 1478 1477 1476 1475 1474 1473 1472 1472 1471 1470 1470 1469 1469 1469 1469 1469 1469 1469 1469 1469 1469 1469 1469 1468 1468 1467 1466 1466 1466 1466 1466 1466 1466 1465 1465 1466
1476 1476 1475 1474 1473 1471 1471 1470 1469 1468 1467 1466 1466 1466 1465 1465 1465 1464 1464 1464 1464 1464 1465 1465 1465 1465 1464 1463 1463 1462 1462 1462 1462 1462 1462 1462 1462 1462
1474 1473 1472 1471 1469 1468 1467 1466 1465 1465 1464 1463 1462 1462 1461 1461 1461 1461 1460 1460 1460 1460 1460 1461 1461 1461 1460 1459 1458 1458 1458 1458 1458 1458 1458 1457 1458 1458
1471 1470 1469 1468 1467 1465 1465 1463 1462 1461 1460 1459 1459 1459 1458 1457 1457 1457 1457 1457 1456 1456 1456 1457 1457 1456 1456 1455 1456 1454 1454 1454 1454 1454 1454 1453 1452 1453
1468 1467 1466 1466 1464 1463 1462 1461 1460 1459 1458 1457 1456 1455 1455 1454 1454 1454 1454 1454 1453 1453 1453 1453 1453 1452 1451 1450 1450 1451 1451 1449 1449 1449 1449 1449 1448 1448
1466 1465 1464 1464 1463 1461 1460 1458 1457 1456 1454 1453 1453 1452 1452 1451 1451 1450 1450 1450 1450 1450 1449 1449 1449 1449 1448 1447 1446 1446 1447 1446 1445 1444 1444 1444 1444 1445
1464 1463 1462 1461 1460 1459 1457 1456 1454 1453 1452 1451 1450 1449 1449 1448 1448 1447 1447 1447 1447 1446 1446 1445 1446 1446 1445 1445 1443 1441 1442 1442 1442 1441 1440 1440 1440 1440
1462 1460 1459 1458 1457 1456 1455 1453 1452 1450 1449 1448 1447 1446 1446 1445 1445 1445 1444 1444 1443 1443 1443 1442 1442 1442 1442 1441 1439 1438 1437 1437 1437 1436 1436 1437 1436 1436
1459 1458 1456 1455 1454 1453 1452 1450 1449 1448 1447 1445 1444 1443 1442 1442 1442 1442 1441 1441 1440 1440 1440 1439 1439 1439 1439 1438 1437 1436 1435 1434 1433 1432 1433 1434 1434 1434